www.pogodaiklimat.ru
ПОГОДА в Янгикишлаке

Архив погоды в Янгикишлаке (Джизакская область, Узбекистан)

Время
и дата
06:40 28.05
06:50 28.05
07:00 28.05
07:10 28.05
07:20 28.05
07:30 28.05
07:40 28.05
07:50 28.05
08:00 28.05
08:10 28.05
08:20 28.05
08:30 28.05
08:40 28.05
08:50 28.05
09:00 28.05
09:10 28.05
09:20 28.05
09:30 28.05
09:40 28.05
09:50 28.05
10:00 28.05
10:10 28.05
10:20 28.05
10:30 28.05
10:40 28.05
10:50 28.05
11:00 28.05
11:10 28.05
11:20 28.05
11:30 28.05
11:40 28.05
11:50 28.05
12:00 28.05
12:10 28.05
12:20 28.05
12:30 28.05
13:00 28.05
13:10 28.05
13:20 28.05
13:30 28.05
13:40 28.05
13:50 28.05
14:00 28.05
14:20 28.05
14:30 28.05
14:40 28.05
14:50 28.05
15:00 28.05
15:10 28.05
15:20 28.05
15:30 28.05
15:40 28.05
15:50 28.05
16:00 28.05
16:10 28.05
16:20 28.05
16:30 28.05
16:40 28.05
16:50 28.05
17:00 28.05
17:10 28.05
17:20 28.05
17:40 28.05
17:50 28.05
18:00 28.05
18:10 28.05
18:20 28.05
18:30 28.05
18:40 28.05
18:50 28.05
19:00 28.05
19:10 28.05
19:20 28.05
19:30 28.05
19:40 28.05
19:50 28.05
20:00 28.05
20:10 28.05
20:20 28.05
20:30 28.05
20:40 28.05
20:50 28.05
21:00 28.05
21:10 28.05
21:20 28.05
21:30 28.05
21:40 28.05
21:50 28.05
22:10 28.05
22:20 28.05
22:30 28.05
22:40 28.05
22:50 28.05
23:00 28.05
23:10 28.05
23:20 28.05
23:30 28.05
23:50 28.05
00:00 29.05
00:10 29.05
00:20 29.05
00:30 29.05
00:40 29.05
01:00 29.05
01:10 29.05
01:20 29.05
01:30 29.05
01:40 29.05
01:50 29.05
02:00 29.05
02:10 29.05
02:20 29.05
02:30 29.05
02:40 29.05
02:50 29.05
03:00 29.05
03:10 29.05
03:20 29.05
03:30 29.05
03:40 29.05
03:50 29.05
04:00 29.05
04:10 29.05
04:20 29.05
04:30 29.05
04:40 29.05
05:00 29.05
05:10 29.05
05:20 29.05
05:30 29.05
05:40 29.05
05:50 29.05
06:00 29.05
06:10 29.05
06:20 29.05
06:30 29.05
06:40 29.05
06:50 29.05
07:00 29.05
07:10 29.05
07:20 29.05
07:30 29.05
07:50 29.05
08:00 29.05
Ветер
(напр.,м/с)
Видимость Явления Солнечная радиация
(Вт/м2)
Т
(С)
Тd
(С)
f
(%)
Тe
(С)
Тes
(С)
Комфортность P
(гПа)
Po
(гПа)
Тmin
(С)
Tmax
(С)
R
(мм)
Ю 1.6
{2.3}
+19.2 +6.9 45 +21 +21 комфорт 1015.6 955.1 +19.2 +18.8
Ю 1.3
{2.0}
+19.5 +7.9 47 +21 +21 комфорт 1015.7 955.2 +19.5 +19.1
ЮЗ 1.1
{1.8}
+19.6 +8.5 49 +22 +22 комфорт 1015.7 955.2 +19.6 +19.4
ЮЗ 1.2
{1.7}
+19.4 +9.4 52 +21 +21 комфорт 1015.8 955.3 +19.8 +19.5
ЮЗ 1.2
{1.5}
+20.0 +10.0 52 +22 +22 комфорт 1015.9 955.4 +20.0 +19.4
ЮЗ 1.0
{1.8}
+21.2 +8.7 45 +22 +22 комфорт 1015.8 955.3 +21.2 +20.0
З 1.0
{1.6}
+22.1 +6.8 37 +23 +23 комфорт 1015.9 955.4 +22.1 +21.2
СЗ 1.6
{3.4}
+22.2 +8.3 41 +23 +23 комфорт 1016.1 955.5 +22.6 +22.1
С 2.2
{3.4}
+22.0 +7.1 38 +23 +23 комфорт 1016.2 955.6 +22.2 +21.7
СВ 1.6
{2.5}
+22.4 +8.2 40 +24 +24 комфорт 1016.3 955.7 +22.5 +22.0
С 1.0
{1.9}
+23.3 +8.3 38 +24 +24 комфорт 1016.3 955.7 +23.3 +22.4
С 1.4
{2.5}
+23.3 +8.1 38 +24 +24 комфорт 1016.4 955.8 +23.4 +23.1
С 1.8
{3.0}
+23.4 +6.7 34 +24 +24 комфорт 1016.3 955.7 +23.6 +23.1
С 2.5
{4.2}
+23.9 +6.6 33 +24 +24 комфорт 1016.3 955.7 +24.1 +23.4
С 3.1
{4.6}
+24.2 +2.4 24 +23 +23 комфорт 1016.1 955.6 +24.5 +23.9
С 3.5
{5.6}
+24.7 0.0 20 +23 +23 комфорт 1016.3 955.7 +24.9 +24.0
С 3.6
{5.8}
+24.8 +1.2 21 +24 +24 комфорт 1016.3 955.7 +25.2 +24.6
С 3.8
{6.1}
+24.9 -0.8 18 +23 +23 комфорт 1016.3 955.7 +25.5 +24.6
С 3.1
{5.2}
+25.1 -1.3 17 +23 +23 комфорт 1016.4 955.8 +25.5 +24.9
С 3.4
{5.6}
+25.7 -2.4 16 +24 +24 комфорт 1016.5 955.9 +25.7 +24.8
СВ 3.7
{6.4}
+25.1 -2.7 16 +23 +23 комфорт 1016.5 955.9 +25.7 +25.0
С 3.9
{6.5}
+25.5 -1.5 17 +24 +24 комфорт 1016.6 956.0 +25.7 +25.0
СВ 3.6
{6.7}
+25.7 +1.1 20 +24 +24 комфорт 1016.6 956.0 +26.0 +25.3
СВ 3.8
{7.4}
+25.7 -0.1 18 +24 +24 комфорт 1016.6 956.0 +26.2 +25.4
С 3.9
{8.2}
+26.1 -0.3 18 +24 +24 комфорт 1016.7 956.1 +26.6 +25.6
СВ 3.7
{6.0}
+25.6 -3.0 15 +23 +23 комфорт 1016.7 956.1 +26.5 +25.7
С 3.7
{10.4}
+26.1 -0.2 18 +24 +24 комфорт 1016.7 956.1 +26.7 +25.6
С 4.2
{7.1}
+26.3 +0.4 18 +24 +24 комфорт 1016.7 956.1 +26.9 +25.7
СВ 4.4
{7.8}
+26.1 -0.3 18 +24 +24 комфорт 1016.7 956.1 +26.8 +25.8
СВ 4.1
{6.4}
+26.2 -0.6 17 +24 +24 комфорт 1016.7 956.1 +26.8 +26.0
СВ 3.3
{7.5}
+26.4 -0.2 18 +25 +25 комфорт 1016.6 956.0 +26.8 +25.9
СВ 3.8
{7.5}
+26.4 -0.6 17 +24 +24 комфорт 1016.7 956.1 +27.2 +26.3
С 3.8
{7.8}
+26.1 +0.4 19 +24 +24 комфорт 1016.6 956.0 +27.7 +26.1
СВ 3.3
{7.2}
+26.7 +1.5 20 +25 +25 комфорт 1016.6 956.0 +26.8 +26.0
СВ 3.8
{7.5}
+26.9 +1.8 20 +25 +25 комфорт 1016.6 956.0 +27.1 +26.1
СВ 3.1
{6.4}
+26.8 +0.3 18 +25 +25 комфорт 1016.7 956.1 +27.4 +26.4
С 3.5
{6.3}
+27.1 +1.0 18 +25 +25 комфорт 1016.6 956.0 +27.9 +26.8
С 2.8
{7.0}
+27.1 +1.0 18 +25 +25 комфорт 1016.6 956.0 +27.8 +26.8
СВ 4.5
{7.8}
+27.0 +1.5 19 +25 +25 комфорт 1016.5 955.9 +28.0 +26.7
СЗ 3.1
{6.6}
+27.4 +1.2 18 +25 +25 комфорт 1016.6 956.0 +27.7 +26.9
СВ 2.5
{5.3}
+27.9 +3.7 21 +26 +26 жарко 1016.6 956.0 +28.2 +27.3
СВ 3.5
{6.6}
+28.2 +3.2 20 +26 +26 жарко 1016.5 955.9 +28.2 +26.9
В 3.4
{6.6}
+27.7 +1.9 19 +26 +26 жарко 1016.5 955.9 +28.2 +26.8
СВ 4.0
{7.9}
+28.2 +2.6 19 +26 +26 жарко 1016.4 955.8 +28.3 +27.4
С 4.6
{8.3}
+27.7 +1.9 19 +26 +26 жарко 1016.3 955.7 +28.2 +27.3
СВ 3.5
{7.2}
+27.7 +2.3 19 +26 +26 жарко 1016.3 955.7 +28.4 +27.4
СВ 4.5
{8.9}
+27.7 +2.8 20 +26 +26 жарко 1016.3 955.7 +28.1 +27.2
СВ 4.6
{8.1}
+27.5 +2.9 21 +26 +26 жарко 1016.3 955.7 +28.0 +27.1
СВ 5.2
{9.4}
+27.6 +2.2 19 +26 +26 жарко 1016.1 955.6 +28.2 +27.1
СВ 3.7
{6.2}
+27.6 +3.4 21 +26 +26 жарко 1016.3 955.7 +28.0 +27.0
СВ 4.1
{8.6}
+27.2 +2.1 20 +26 +26 жарко 1016.1 955.6 +28.0 +27.1
С 5.2
{8.1}
+27.4 +2.1 19 +26 +26 жарко 1016.3 955.7 +28.2 +27.1
СВ 4.5
{7.6}
+27.5 +1.7 19 +26 +26 жарко 1016.3 955.7 +28.1 +27.3
СВ 3.4
{5.8}
+27.7 +2.6 20 +26 +26 жарко 1016.1 955.6 +28.2 +27.1
СВ 2.9
{7.0}
+27.2 +1.8 19 +25 +25 комфорт 1016.3 955.7 +28.2 +27.2
СВ 3.7
{6.9}
+27.4 +1.8 19 +26 +26 жарко 1016.1 955.6 +27.9 +27.2
СВ 3.9
{6.5}
+27.4 +1.3 18 +25 +25 комфорт 1016.1 955.6 +28.1 +27.4
В 4.2
{7.1}
+27.1 +1.4 19 +25 +25 комфорт 1016.1 955.6 +27.7 +27.0
СВ 3.0
{7.0}
+28.0 +2.9 20 +26 +26 жарко 1016.1 955.6 +28.0 +26.9
С 4.8
{8.1}
+27.4 +1.4 19 +26 +26 жарко 1016.0 955.5 +28.0 +27.3
СВ 4.1
{7.6}
+27.4 +1.1 18 +25 +25 комфорт 1016.0 955.5 +27.6 +27.0
СВ 3.8
{6.6}
+27.4 +1.7 19 +26 +26 жарко 1016.0 955.5 +27.6 +27.1
СВ 4.5
{7.3}
+27.1 +1.6 19 +25 +25 комфорт 1015.9 955.4 +27.2 +26.8
СВ 4.4
{7.2}
+27.2 +2.2 20 +26 +26 жарко 1015.9 955.4 +27.3 +26.9
СВ 3.5
{6.5}
+26.9 +1.2 19 +25 +25 комфорт 1015.9 955.4 +27.2 +26.8
СВ 4.1
{6.2}
+26.9 +1.3 19 +25 +25 комфорт 1015.9 955.4 +26.9 +26.7
СВ 4.5
{7.7}
+26.7 +1.3 19 +25 +25 комфорт 1015.8 955.3 +26.9 +26.6
СВ 4.6
{6.5}
+26.5 +1.6 20 +25 +25 комфорт 1015.8 955.3 +26.8 +26.5
СВ 4.0
{6.8}
+26.4 +1.9 20 +25 +25 комфорт 1015.9 955.4 +26.5 +26.4
СВ 3.7
{5.9}
+26.4 +2.1 21 +25 +25 комфорт 1015.9 955.4 +26.4 +26.3
СВ 3.5
{5.6}
+26.1 +2.3 21 +25 +25 комфорт 1016.0 955.5 +26.4 +26.1
СВ 3.4
{5.3}
+25.9 +2.4 22 +25 +25 комфорт 1016.0 955.5 +26.1 +25.9
СВ 2.9
{4.7}
+25.6 +3.1 23 +24 +24 комфорт 1016.1 955.6 +25.9 +25.6
СВ 3.3
{4.9}
+25.4 +3.4 24 +24 +24 комфорт 1016.1 955.6 +25.7 +25.4
В 2.3
{4.8}
+24.8 +3.8 26 +24 +24 комфорт 1016.1 955.6 +25.4 +24.8
В 2.2
{3.8}
+24.4 +3.9 26 +24 +24 комфорт 1016.3 955.7 +24.8 +24.4
В 2.4
{3.7}
+23.8 +4.3 28 +23 +23 комфорт 1016.3 955.7 +24.4 +23.8
В 2.3
{4.1}
+23.5 +4.4 29 +23 +23 комфорт 1016.3 955.7 +23.8 +23.4
В 2.3
{3.8}
+23.0 +4.3 30 +23 +23 комфорт 1016.4 955.8 +23.5 +23.0
В 2.4
{3.8}
+22.7 +4.4 30 +23 +23 комфорт 1016.5 955.9 +23.0 +22.7
ЮВ 2.1
{3.5}
+22.2 +5.1 33 +23 +23 комфорт 1016.5 955.9 +22.7 +22.2
ЮВ 1.9
{3.2}
+21.9 +5.1 33 +22 +22 комфорт 1016.7 956.1 +22.2 +21.9
ЮВ 2.2
{3.7}
+21.8 +5.0 33 +22 +22 комфорт 1016.7 956.1 +21.9 +21.8
ЮВ 2.2
{3.4}
+21.9 +4.8 33 +22 +22 комфорт 1016.8 956.2 +22.0 +21.8
ЮВ 2.2
{3.5}
+21.8 +4.6 32 +22 +22 комфорт 1016.8 956.2 +21.9 +21.8
ЮВ 2.0
{3.5}
+21.6 +4.6 33 +22 +22 комфорт 1016.8 956.2 +21.8 +21.6
ЮВ 1.9
{3.2}
+21.5 +4.7 33 +22 +22 комфорт 1016.9 956.3 +21.6 +21.5
ЮВ 2.0
{3.1}
+21.5 +4.6 33 +22 +22 комфорт 1016.9 956.3 +21.5 +21.4
ЮВ 1.6
{2.7}
+21.2 +4.6 34 +22 +22 комфорт 1017.1 956.5 +21.5 +21.2
В 4.0
{12.1}
+21.9 +5.7 35 +22 +22 комфорт 1017.4 956.8 +22.3 +21.2
СВ 4.1
{7.6}
+21.6 +6.1 36 +22 +22 комфорт 1017.6 957.0 +21.9 +21.6
СВ 2.9
{4.7}
+21.2 +6.1 37 +22 +22 комфорт 1017.7 957.1 +21.6 +21.3
В 1.7
{3.8}
+20.9 +5.8 37 +23 +23 комфорт 1017.8 957.2 +21.2 +20.9
В 1.5
{2.8}
+20.4 +5.1 36 +22 +22 комфорт 1017.9 957.3 +20.9 +20.5
ЮВ 1.3
{1.8}
+19.9 +5.4 38 +21 +21 комфорт 1018.1 957.4 +20.4 +19.9
ЮВ 1.7
{2.1}
+19.8 +5.4 39 +21 +21 комфорт 1018.1 957.4 +19.9 +19.8
ЮВ 1.4
{2.0}
+19.5 +5.3 39 +21 +21 комфорт 1018.2 957.5 +19.8 +19.5
ЮВ 0.8
{1.5}
+18.9 +5.8 42 +21 +21 комфорт 1018.1 957.4 +19.4 +18.9
З 1.1
{1.7}
+18.8 +5.8 43 +20 +20 1018.2 957.5 +18.9 +18.8
З 1.4
{1.8}
+19.1 +5.8 42 +20 +20 1018.2 957.5 +19.1 +18.7
С 1.3
{2.6}
+18.8 +5.1 40 +20 +20 1018.1 957.4 +19.6 +18.8
С 1.2
{1.8}
+18.4 +5.3 42 +20 +20 1018.1 957.4 +18.8 +18.4
СЗ 0.8
{1.7}
+18.2 +5.5 43 +20 +20 1018.1 957.4 +18.4 +18.1
СЗ 1.3
{2.2}
+17.9 +5.2 43 +19 +19 1017.9 957.3 +18.1 +17.9
ЮЗ 1.1
{1.7}
+17.2 +6.0 48 +18 +18 1017.8 957.2 +17.9 +17.2
ЮЗ 1.7
{2.3}
+17.0 +5.9 48 +18 +18 1017.7 957.1 +17.2 +16.8
ЮЗ 1.5
{2.2}
+17.0 +5.8 47 +18 +18 1017.7 957.1 +17.2 +16.9
З 1.5
{2.8}
+17.2 +4.9 44 +18 +18 1017.7 957.1 +17.2 +16.9
ЮЗ 1.0
{2.0}
+16.8 +5.3 47 +18 +18 1017.7 957.1 +17.4 +16.8
Ю 1.1
{1.7}
+16.1 +5.7 50 +17 +17 1017.7 957.1 +16.8 +16.1
Ю 1.7
{2.4}
+15.7 +5.8 52 +16 +16 1017.7 957.1 +16.1 +15.7
Ю 2.1
{2.7}
+15.6 +5.7 52 +16 +16 1017.7 957.1 +15.8 +15.6
ЮЗ 1.9
{2.5}
+15.6 +5.3 50 +16 +16 1017.6 957.0 +15.6 +15.4
ЮЗ 1.7
{2.5}
+15.5 +5.6 52 +16 +16 1017.6 957.0 +15.7 +15.4
Ю 2.5
{3.2}
+15.4 +5.3 51 +15 +15 1017.5 956.9 +15.6 +15.3
Ю 2.2
{2.9}
+15.4 +5.3 51 +15 +15 1017.4 956.8 +15.6 +15.3
Ю 2.2
{2.9}
+15.5 +5.0 50 +15 +15 1017.4 956.8 +15.5 +15.2
Ю 2.6
{3.7}
+15.4 +5.0 50 +15 +15 1017.3 956.7 +15.6 +15.4
Ю 2.5
{3.7}
+15.3 +5.1 51 +15 +15 1017.2 956.6 +15.4 +15.3
Ю 2.2
{3.0}
+15.0 +5.1 51 +15 +15 1017.1 956.5 +15.3 +14.9
Ю 2.1
{3.0}
+14.9 +5.1 52 +15 +15 1017.2 956.6 +15.0 +14.8
Ю 1.8
{2.9}
+14.7 +5.1 53 +15 +15 1017.2 956.6 +14.9 +14.7
ЮЗ 1.5
{2.2}
+14.8 +5.1 52 +15 +15 1017.2 956.6 +14.8 +14.6
Ю 2.4
{3.3}
+14.9 +4.9 51 +15 +15 1017.2 956.6 +15.0 +14.7
Ю 2.3
{3.2}
+14.6 +5.0 52 +14 +14 1017.1 956.5 +14.9 +14.5
Ю 2.8
{3.5}
+14.6 +5.0 53 +14 +14 1017.1 956.5 +14.7 +14.5
Ю 3.0
{3.9}
+14.4 +4.9 53 +14 +14 1017.1 956.5 +14.5 +14.3
Ю 2.7
{3.9}
+14.3 +4.9 53 +14 +14 1017.1 956.5 +14.4 +14.2
Ю 2.9
{3.7}
+14.6 +4.9 52 +14 +14 1017.0 956.4 +14.7 +14.3
Ю 2.7
{3.9}
+14.7 +4.9 52 +14 +14 1017.0 956.4 +14.7 +14.6
Ю 2.2
{3.5}
+15.2 +4.9 50 +15 +15 1017.0 956.4 +15.2 +14.7
Ю 2.1
{3.5}
+15.4 +5.2 50 +15 +15 1017.0 956.4 +15.4 +15.2
Ю 2.2
{3.6}
+15.8 +5.4 50 +16 +16 1017.0 956.4 +15.8 +15.4
Ю 2.1
{3.2}
+16.1 +5.6 50 +16 +16 1017.0 956.4 +16.1 +15.8
Ю 1.8
{2.8}
+16.7 +6.1 49 +17 +17 1016.9 956.3 +16.7 +16.1
Ю 1.4
{2.5}
+17.3 +6.1 48 +18 +18 1016.9 956.3 +17.3 +16.7
Ю 1.5
{2.3}
+18.3 +6.5 46 +19 +19 1016.8 956.2 +18.3 +17.3
Ю 1.2
{2.1}
+18.7 +6.5 45 +20 +20 1016.7 956.1 +18.7 +18.3
ЮЗ 1.0
{1.8}
+19.7 +6.6 42 +22 +22 комфорт 1016.7 956.1 +19.7 +18.7
ЮЗ 0.6
{1.1}
+20.5 +4.8 36 +23 +23 комфорт 1016.6 956.0 +20.5 +19.7
СЗ 0.8
{1.8}
+20.9 +4.7 35 +23 +23 комфорт 1016.6 956.0 +20.9 +20.4
СЗ 1.5
{3.0}
+20.3 +4.2 35 +22 +22 комфорт 1016.7 956.1 +20.9 +20.1
С 1.8
{2.9}
+20.6 +4.6 35 +22 +22 комфорт 1016.8 956.2 +20.8 +20.2
С 1.9
{3.2}
+20.9 +4.6 34 +22 +22 комфорт 1016.8 956.2 +21.1 +20.4
Местоположение метеостанции Янгикишлак (Джизакская область, Узбекистан): широта 40.42 долгота 67.18 высота над уровнем моря 0 м.
В архиве по умолчанию представлена погода в Янгикишлаке за последние 1-2 суток. Обновление информации о фактической погоде в базе происходит ежечасно! Архивные данные за месяц целиком и за предыдущие месяцы Вы можете получить, выбрав интересующий диапазон дат из раскрывающегося списка и нажав кнопку "Ввод!".
*Определитесь, кто Вы:
Внимание! Время в таблицах - местное (без учета летнего времени). Для получения всемирного времени необходимо вычесть поправку, которая равна 5 ч.
Смотрите также архив погоды на ближайших метеорологических станциях:
Партнеры нашего сайта:      
Пояснения к столбцам:
  • Ветер - указаны скорость ветра в м/с - средняя за 10 мин, порывы в срок и между сроками (в фигурных скобках) и направление, откуда дует ветер: С - северный,
  • СВ - северо-восточный, В - восточный, ЮВ - юго-восточный, Ю - южный, ЮЗ - юго-западный, З - западный, СЗ - северо-западный.
  • Видимость - горизонтальная дальность видимости в метрах или километрах. При видимости от 1 до 10 км при отсутствии осадков обычно наблюдается дымка, при ухудшении видимости до 1 км и менее - туман. В сухую погоду видимость может ухудшаться дымом, пылью или мглою.
  • Явления - указаны атмосферные явления, наблюдавшиеся в срок или в последний час перед сроком.
  • Солнечная радиация - мощность потока солнечного излучения на поверхность земли и предметов в Вт/м2.
  • T - Температура воздуха - температура, измеренная на высоте 2 м над землей.
  • Td - Температура точки росы - температура, при понижении до которой содержащийся в воздухе водяной пар достигнет насыщения.
  • f - Относительная влажность воздуха - влажноcть воздуха, измеренная на высоте 2 м над землей.
  • Te - Эффективная температура - температура, которую ощущает одетый по сезону человек в тени. Характеристика душности погоды. При расчете учитывается влияние влажности воздуха и скорости ветра на теплоощущения человека.
  • Tes - Эффективная температура на солнце - температура, которую ощущает человек, с поправкой на солнечный нагрев. Характеристика знойности погоды. Зависит от высоты солнца над горизонтом, облачности и скорости ветра. Ночью, в пасмурную погоду, а также при ветре 12 м/с и более поправка равна нулю.
  • P - Атмосферное давление - приведенное к уровню моря атмосферное давление.
  • Po - Атмосферное давление - измеренное на уровне метеостанции атмосферное давление.
  • Tmin - Минимальная температура - минимум температуры воздуха на высоте 2 м над землей.
  • Tmax - Максимальная температура - максимум температуры воздуха на высоте 2 м над землей.
  • R - Количество осадков - Количество выпавших осадков за период времени, мм. При наведении курсора мыши на число - период времени, за который выпало указанное количество осадков.